Location: Bakov nad Jizerou
(50.4784°N, 14.9394°E)
Time: 16:59:03
(UTC+00:00)

Cosmos 2322 - Pass Details

Date: 26 October 2021
Orbit: 841 x 854 km, 71.0° (Epoch: 04 December)

Event Time Altitude Azimuth Distance (km) Brightness Sun altitude
Rises 20:03:17 0° 248° (WSW) 3,418 7.2 -40.1°
Reaches altitude 10° 20:06:07 10° 260° (W) 2,486 6.5 -40.5°
Enters shadow 20:08:29 20° 280° (W) 1,860 5.9 -40.8°
